TAP896 LPPR-LEMD

Flight info

Callsign TAP896
Flight time N/A
Altitude 28000
Route BELDU UL155 ADORO L155 ZMR
Aircraft A20N/M-SDE2E3FGHIRWXY/LB1

Departure

Time 2026-05-06 18:20
Airport Francisco de Sá Carneiro Airport (LPPR)

Arrival

Time N/A
Airport Adolfo Suárez Madrid–Barajas Airport (LEMD)
Time Latitude Longitude Altitude Speed Heading
2026-05-06 18:02 41.23387 -8.67464 233 ft 0 kts 259°
2026-05-06 18:09 41.23389 -8.67449 237 ft 4 kts 257°
2026-05-06 18:09 41.23397 -8.67414 235 ft 4 kts 247°
2026-05-06 18:10 41.23409 -8.67384 237 ft 4 kts 222°
2026-05-06 18:10 41.23428 -8.67372 237 ft 1 kts 168°
2026-05-06 18:10 41.23432 -8.67373 239 ft 0 kts 168°
2026-05-06 18:12 41.23409 -8.67367 238 ft 7 kts 168°
2026-05-06 18:12 41.23351 -8.67394 233 ft 13 kts 224°
2026-05-06 18:12 41.23316 -8.67525 241 ft 16 kts 255°
2026-05-06 18:12 41.23309 -8.67566 237 ft 0 kts 257°
2026-05-06 18:13 41.23308 -8.67566 237 ft 0 kts 257°
2026-05-06 18:13 41.23302 -8.67617 239 ft 11 kts 259°
2026-05-06 18:13 41.23323 -8.67719 240 ft 14 kts 317°
2026-05-06 18:13 41.23435 -8.67767 239 ft 29 kts 349°
2026-05-06 18:14 41.23902 -8.67890 217 ft 103 kts 349°
2026-05-06 18:14 41.24757 -8.68114 202 ft 111 kts 350°
2026-05-06 18:14 41.25160 -8.68157 183 ft 43 kts 14°
2026-05-06 18:14 41.25270 -8.68087 178 ft 0 kts 54°
2026-05-06 18:15 41.25273 -8.68081 178 ft 6 kts 58°
2026-05-06 18:15 41.25187 -8.67995 180 ft 24 kts 167°
2026-05-06 18:15 41.25022 -8.67951 202 ft 24 kts 168°
2026-05-06 18:16 41.24862 -8.67893 201 ft 24 kts 154°
2026-05-06 18:16 41.24714 -8.67815 212 ft 22 kts 166°
2026-05-06 18:16 41.24561 -8.67774 213 ft 23 kts 170°
2026-05-06 18:16 41.24387 -8.67730 214 ft 27 kts 169°
2026-05-06 18:17 41.24230 -8.67606 216 ft 25 kts 152°
2026-05-06 18:17 41.24066 -8.67541 221 ft 25 kts 168°
2026-05-06 18:17 41.23889 -8.67493 227 ft 27 kts 169°
2026-05-06 18:17 41.23697 -8.67442 229 ft 29 kts 168°
2026-05-06 18:18 41.23501 -8.67392 234 ft 29 kts 169°
2026-05-06 18:18 41.23337 -8.67435 234 ft 23 kts 239°
2026-05-06 18:18 41.23316 -8.67544 236 ft 0 kts 257°
2026-05-06 18:18 41.23308 -8.67595 238 ft 15 kts 258°
2026-05-06 18:19 41.23334 -8.67733 240 ft 18 kts 328°
2026-05-06 18:19 41.23520 -8.67787 231 ft 55 kts 348°
2026-05-06 18:19 41.24134 -8.67952 213 ft 121 kts 349°
2026-05-06 18:19 41.25103 -8.68206 188 ft 161 kts 348°
2026-05-06 18:20 41.26258 -8.68505 616 ft 169 kts 348°
2026-05-06 18:20 41.27420 -8.68814 1190 ft 174 kts 348°
2026-05-06 18:20 41.28609 -8.69127 1869 ft 175 kts 348°
2026-05-06 18:20 41.29863 -8.69454 2252 ft 191 kts 348°
2026-05-06 18:21 41.31229 -8.69812 2430 ft 209 kts 348°
2026-05-06 18:21 41.32686 -8.70189 2580 ft 225 kts 348°
2026-05-06 18:21 41.33803 -8.70482 2681 ft 236 kts 348°
2026-05-06 18:21 41.35397 -8.70902 2790 ft 249 kts 348°
2026-05-06 18:22 41.37130 -8.71360 2905 ft 258 kts 348°
2026-05-06 18:22 41.38903 -8.71824 3119 ft 261 kts 349°
2026-05-06 18:22 41.40712 -8.71736 3336 ft 263 kts 17°
2026-05-06 18:22 41.42283 -8.70527 3532 ft 265 kts 44°
2026-05-06 18:23 41.43246 -8.68486 3730 ft 266 kts 72°
2026-05-06 18:23 41.43460 -8.67365 3827 ft 266 kts 78°
2026-05-06 18:24 41.43774 -8.64934 4023 ft 267 kts 81°
2026-05-06 18:24 41.44058 -8.62479 4207 ft 268 kts 80°
2026-05-06 18:24 41.44292 -8.60019 4351 ft 269 kts 87°
2026-05-06 18:24 41.44198 -8.57528 4537 ft 269 kts 98°
2026-05-06 18:25 41.43919 -8.55063 4699 ft 270 kts 98°
2026-05-06 18:25 41.43656 -8.52556 5099 ft 273 kts 97°
2026-05-06 18:25 41.43400 -8.50057 5761 ft 273 kts 98°
2026-05-06 18:25 41.43131 -8.47541 6314 ft 275 kts 98°
2026-05-06 18:26 41.42860 -8.45006 6823 ft 278 kts 98°
2026-05-06 18:26 41.42594 -8.42444 7334 ft 279 kts 98°
2026-05-06 18:26 41.42331 -8.39870 7818 ft 282 kts 98°
2026-05-06 18:26 41.42068 -8.37276 8287 ft 284 kts 98°
2026-05-06 18:27 41.41802 -8.34662 8730 ft 286 kts 98°
2026-05-06 18:27 41.41535 -8.32032 9139 ft 288 kts 98°
2026-05-06 18:27 41.41264 -8.29380 9545 ft 289 kts 98°
2026-05-06 18:27 41.40994 -8.26719 9917 ft 291 kts 98°
2026-05-06 18:28 41.40728 -8.24027 10196 ft 297 kts 98°
2026-05-06 18:28 41.40443 -8.21256 10290 ft 307 kts 98°
2026-05-06 18:28 41.40143 -8.18398 10384 ft 316 kts 98°
2026-05-06 18:28 41.39834 -8.15451 10462 ft 325 kts 98°
2026-05-06 18:29 41.39517 -8.12440 10536 ft 333 kts 98°
2026-05-06 18:29 41.39194 -8.09355 10656 ft 337 kts 98°
2026-05-06 18:29 41.38873 -8.06281 11032 ft 334 kts 98°
2026-05-06 18:29 41.38555 -8.03240 11405 ft 329 kts 98°
2026-05-06 18:30 41.38240 -8.00241 11778 ft 325 kts 98°
2026-05-06 18:30 41.37929 -7.97285 12151 ft 320 kts 98°
2026-05-06 18:30 41.37626 -7.94415 12558 ft 314 kts 98°
2026-05-06 18:30 41.37321 -7.91535 13057 ft 306 kts 98°
2026-05-06 18:31 41.37031 -7.88805 13544 ft 298 kts 98°
2026-05-06 18:31 41.36744 -7.86108 14038 ft 290 kts 98°
2026-05-06 18:31 41.36465 -7.83484 14530 ft 282 kts 98°
2026-05-06 18:31 41.36193 -7.80943 15018 ft 273 kts 98°
2026-05-06 18:32 41.35947 -7.78497 15501 ft 261 kts 94°
2026-05-06 18:32 41.35970 -7.76141 15926 ft 251 kts 83°
2026-05-06 18:32 41.36191 -7.73843 16115 ft 250 kts 83°
2026-05-06 18:32 41.36408 -7.71515 16146 ft 256 kts 83°
2026-05-06 18:33 41.36624 -7.69132 16154 ft 263 kts 83°
2026-05-06 18:33 41.36842 -7.66680 16160 ft 270 kts 83°
2026-05-06 18:33 41.37006 -7.64826 16164 ft 276 kts 83°
2026-05-06 18:33 41.37233 -7.62260 16166 ft 283 kts 83°
2026-05-06 18:34 41.37466 -7.59619 16172 ft 292 kts 83°
2026-05-06 18:34 41.37707 -7.56883 16204 ft 304 kts 83°
2026-05-06 18:34 41.37957 -7.54035 16304 ft 316 kts 83°
2026-05-06 18:34 41.38216 -7.51086 16541 ft 325 kts 83°
2026-05-06 18:35 41.38478 -7.48087 17099 ft 326 kts 83°
2026-05-06 18:35 41.38716 -7.45352 17692 ft 328 kts 83°
2026-05-06 18:35 41.38978 -7.42325 18378 ft 331 kts 83°
2026-05-06 18:35 41.39242 -7.39265 19106 ft 334 kts 83°
2026-05-06 18:36 41.39509 -7.36176 19816 ft 338 kts 83°
2026-05-06 18:36 41.39778 -7.33051 20506 ft 341 kts 83°
2026-05-06 18:36 41.40049 -7.29890 21140 ft 346 kts 83°
2026-05-06 18:36 41.40318 -7.26740 21810 ft 348 kts 83°
2026-05-06 18:37 41.40593 -7.23516 22449 ft 352 kts 83°
2026-05-06 18:37 41.40869 -7.20261 23049 ft 356 kts 83°
2026-05-06 18:37 41.41147 -7.16972 23627 ft 359 kts 83°
2026-05-06 18:37 41.41426 -7.13660 24233 ft 362 kts 83°
2026-05-06 18:38 41.41708 -7.10306 24766 ft 366 kts 83°
2026-05-06 18:38 41.41991 -7.06926 25284 ft 370 kts 83°
2026-05-06 18:38 41.42276 -7.03501 25795 ft 373 kts 83°
2026-05-06 18:38 41.42563 -7.00045 26263 ft 378 kts 83°
2026-05-06 18:39 41.42853 -6.96549 26761 ft 380 kts 83°
2026-05-06 18:39 41.43141 -6.93046 27296 ft 382 kts 84°
2026-05-06 18:39 41.43431 -6.89510 27732 ft 385 kts 84°
2026-05-06 18:40 41.44013 -6.82376 28000 ft 386 kts 84°
2026-05-06 18:40 41.44589 -6.75267 28001 ft 387 kts 84°
2026-05-06 18:41 41.45160 -6.68163 27999 ft 386 kts 84°
2026-05-06 18:41 41.45440 -6.64658 27999 ft 386 kts 84°
2026-05-06 18:41 41.45724 -6.61088 28002 ft 387 kts 84°
2026-05-06 18:41 41.46006 -6.57528 28000 ft 390 kts 84°
2026-05-06 18:42 41.46297 -6.53850 27998 ft 406 kts 84°
2026-05-06 18:42 41.46596 -6.50041 27997 ft 421 kts 84°
2026-05-06 18:42 41.46905 -6.46096 28003 ft 435 kts 84°
2026-05-06 18:43 41.47525 -6.38138 28000 ft 445 kts 84°
2026-05-06 18:43 41.48157 -6.29941 28001 ft 445 kts 84°
2026-05-06 18:43 41.48471 -6.25841 27997 ft 444 kts 84°
2026-05-06 18:44 41.48782 -6.21746 28003 ft 445 kts 84°
2026-05-06 18:44 41.49402 -6.13532 28002 ft 445 kts 84°
2026-05-06 18:44 41.49709 -6.09435 28000 ft 445 kts 84°
2026-05-06 18:45 41.50016 -6.05331 28002 ft 444 kts 84°
2026-05-06 18:45 41.50624 -5.97126 27997 ft 444 kts 84°
2026-05-06 18:45 41.50804 -5.94676 28000 ft 445 kts 84°
2026-05-06 18:46 41.51207 -5.89183 28000 ft 445 kts 84°
2026-05-06 18:46 41.51505 -5.85087 27999 ft 444 kts 84°
2026-05-06 18:46 41.51803 -5.80985 28002 ft 444 kts 84°
2026-05-06 18:46 41.52099 -5.76874 27999 ft 444 kts 84°
2026-05-06 18:47 41.52392 -5.72766 28002 ft 444 kts 85°
2026-05-06 18:47 41.52384 -5.69337 27999 ft 444 kts 96°
2026-05-06 18:47 41.51747 -5.65318 28000 ft 444 kts 109°
2026-05-06 18:47 41.50455 -5.61590 28004 ft 444 kts 122°
2026-05-06 18:48 41.48571 -5.58341 28004 ft 443 kts 135°
2026-05-06 18:48 41.44034 -5.52842 27997 ft 444 kts 139°
2026-05-06 18:48 41.41731 -5.50101 28000 ft 444 kts 138°
2026-05-06 18:49 41.39439 -5.47347 27996 ft 444 kts 138°
2026-05-06 18:49 41.38016 -5.45627 27995 ft 444 kts 138°
2026-05-06 18:49 41.35733 -5.42854 28000 ft 444 kts 137°
2026-05-06 18:50 41.31172 -5.37307 27997 ft 444 kts 137°
2026-05-06 18:50 41.26614 -5.31770 27997 ft 444 kts 138°
2026-05-06 18:50 41.24331 -5.29002 27995 ft 444 kts 138°
2026-05-06 18:51 41.22049 -5.26237 28003 ft 444 kts 138°
2026-05-06 18:51 41.17480 -5.20710 28001 ft 444 kts 138°
2026-05-06 18:51 41.15192 -5.17947 27997 ft 444 kts 138°
2026-05-06 18:52 41.12907 -5.15189 27996 ft 444 kts 138°
2026-05-06 18:52 41.08331 -5.09677 28001 ft 444 kts 138°
2026-05-06 18:53 41.03787 -5.04210 28001 ft 444 kts 138°
2026-05-06 18:53 41.01656 -5.01652 27998 ft 444 kts 138°
2026-05-06 18:53 40.99364 -4.98903 27997 ft 445 kts 138°
2026-05-06 18:53 40.97071 -4.96155 27997 ft 445 kts 138°
2026-05-06 18:54 40.94776 -4.93409 27999 ft 445 kts 138°
2026-05-06 18:54 40.92478 -4.90660 27999 ft 445 kts 138°
2026-05-06 18:54 40.90184 -4.87919 27998 ft 445 kts 138°
2026-05-06 18:55 40.85593 -4.82439 27998 ft 445 kts 138°
2026-05-06 18:55 40.80996 -4.76964 27997 ft 445 kts 138°
2026-05-06 18:55 40.78698 -4.74232 27996 ft 445 kts 138°
2026-05-06 18:56 40.76390 -4.71490 27997 ft 446 kts 138°
2026-05-06 18:56 40.74091 -4.68761 27996 ft 445 kts 138°
2026-05-06 18:56 40.71784 -4.66026 27999 ft 446 kts 138°
2026-05-06 18:56 40.69476 -4.63291 27997 ft 447 kts 138°
2026-05-06 18:57 40.67164 -4.60555 28004 ft 446 kts 138°
2026-05-06 18:57 40.64853 -4.57822 27998 ft 446 kts 138°
2026-05-06 18:57 40.62556 -4.55082 27971 ft 446 kts 136°
2026-05-06 18:57 40.60429 -4.52129 27626 ft 443 kts 132°
2026-05-06 18:58 40.58359 -4.49134 27102 ft 440 kts 132°
2026-05-06 18:58 40.56310 -4.46165 26550 ft 436 kts 132°
2026-05-06 18:58 40.54279 -4.43232 25974 ft 431 kts 132°
2026-05-06 18:58 40.52264 -4.40333 25348 ft 428 kts 133°
2026-05-06 18:59 40.50268 -4.37467 24804 ft 423 kts 133°
2026-05-06 18:59 40.48317 -4.34670 24212 ft 418 kts 133°
2026-05-06 18:59 40.46361 -4.31871 23612 ft 415 kts 133°
2026-05-06 18:59 40.44418 -4.29093 23044 ft 410 kts 133°
2026-05-06 19:00 40.43118 -4.27235 22597 ft 409 kts 133°